Regional Weather Roundup
Issued by NWS Albany, NY

Home | Current Version | Previous Version | Text Only | Print | Product List | Glossary On
Versions: 1 2 3 4 5 6 7 8 9 10 11 12 13 14 15 16 17 18 19 20 21 22 23 24 25 26 27 28 29 30 31 32 33 34 35 36 37 38 39 40 41 42 43 44 45 46 47 48 49 50
000
ASUS41 KALY 171510
RWRALY

NEW YORK STATE HOURLY WEATHER ROUNDUP
NATIONAL WEATHER SERVICE ALBANY NY
1100 AM EDT WED SEP 17 2014

NOTE: "FAIR" INDICATES FEW OR NO CLOUDS BELOW 12,000 FEET WITH NO
SIGNIFICANT WEATHER AND/OR NO OBSTRUCTIONS TO VISIBILITY.

NYZ032-033-038>043-046>054-057>066-NYZ062>081-171600-
EAST


CITY           SKY/WX    TMP DP  RH WIND       PRES   REMARKS
ALBANY         MOSUNNY   61  47  59 CALM      30.05F
GLENS FALLS    SUNNY     60  47  61 S6        30.02F
POUGHKEEPSIE   SUNNY     61  48  62 SE3       30.06F
NEWBURGH       SUNNY     61  50  67 CALM      30.08F
MONTGOMERY     SUNNY     63  47  55 S3        30.06F
WHITE PLAINS   MOSUNNY   66  44  45 VRB3      30.05F
ISLIP          MOSUNNY   67  43  41 VRB5      30.04S
NEW YORK CITY  MOSUNNY   66  46  48 NE6       30.05F
CENTRAL PARK   SUNNY     66  44  45 CALM      30.08F
$$

NYZ005>009-017-018-044>046-055-056-171600-
CENTRAL


CITY           SKY/WX    TMP DP  RH WIND       PRES   REMARKS
FULTON         SUNNY     62  49  62 W10       30.04F
SYRACUSE       MOSUNNY   65  47  52 W10       30.04F
ROME           SUNNY     58  49  72 CALM      30.06F
ELMIRA         SUNNY     62  48  60 VRB3      30.06F
BINGHAMTON     SUNNY     57  49  74 W6        30.07S
MONTICELLO     MOSUNNY   57  46  67 SW7       30.08F
$$

NYZ026>034-041>043-171600-
NORTH


CITY           SKY/WX    TMP DP  RH WIND       PRES   REMARKS
WATERTOWN      SUNNY     65  48  54 SW8       30.01F
FORT DRUM      NOT AVBL
MASSENA        PTSUNNY   60  51  72 SW8       30.01S
SARANAC LAKE   MOSUNNY   54  40  59 SW12      30.00F
PLATTSBURGH    SUNNY     63  40  42 VRB5      30.00S
$$

NYZ001>004-010>016-019>021-171600-
WEST


CITY           SKY/WX    TMP DP  RH WIND       PRES   REMARKS
NIAGARA FALLS  MOSUNNY   63  48  58 SW5       30.02F
BUFFALO        MOSUNNY   61  47  59 W13       30.03F
DUNKIRK        CLOUDY    62  49  62 SW8       30.04F
JAMESTOWN      MOSUNNY   55  46  71 S7        30.06F
WELLSVILLE     MOSUNNY   59  43  55 S8        30.07F
ROCHESTER      MOSUNNY   63  48  58 W8        30.04F
PENN YAN       SUNNY     62  45  53 S7        30.05F
$$

             KEY
       WCI = WIND CHILL INDEX
       VSB = VISIBILITY
       HX  = HEAT INDEX
$$


USA.gov is the U.S. government's official web portal to all federal, state and local government web resources and services.